Home   Weather   Bamako   Past weeks

Flag for Mali Past Weather in Bamako, Mali — Yesterday and Last 2 Weeks

88 °F

Passing clouds.

Feels Like: 94 °F
Forecast: N/A
Wind: 2 mph from Southwest

Location: Bamako / Senou

Current Time: Oct 22, 2016 at 7:48:06 PM

Latest Report: Oct 22, 2016 at 7:00 PM

Visibility: N/A

Pressure: 29.95 "Hg

Humidity: 59%

Dew Point: 72 °F

Location of BamakoLocation

Past Weather in Bamako — Graph


Bamako Temperature Yesterday

Maximum temperature yesterday: 95 °F (at 3:30 PM)
Minimum temperature yesterday: 73 °F (at 7:00 AM)
Average temperature yesterday: 83 °F

High & Low Weather Summary for the Past Weeks

High100 °F (Oct 8, 2:30 PM)100% (Oct 8, 3:00 AM)30.04 "Hg (Oct 8, 3:00 AM)
Low70 °F (Oct 20, 4:30 AM)20% (Oct 8, 2:30 PM)29.80 "Hg (Oct 7, 6:00 PM)
Average84 °F70%29.93 "Hg
* Reported Oct 7 6:00 PM — Oct 22 6:30 PM, Bamako, Weather by CustomWeather, © 2016

Note: Actual official high and low records may vary slightly from our data, if they occured in-between our weather recording intervals... More about our weather records


Bamako Weather History for the Previous 24 Hours

Scroll right to see more
Time TempWeatherWind HumidityBarometerVisibility
6:30 PM
Sat, Oct 22
90 °FPassing clouds.5 mph52%29.92 "HgN/A
6:00 PM91 °FPassing clouds.5 mph46%29.92 "HgN/A
5:30 PM91 °FPassing clouds.8 mph46%29.92 "HgN/A
5:00 PM93 °FPassing clouds.12 mph41%29.89 "HgN/A
4:30 PM95 °FPassing clouds.9 mph39%29.92 "HgN/A
4:00 PM95 °FPassing clouds.7 mph36%29.89 "HgN/A
3:30 PM97 °FPassing clouds.8 mph34%29.92 "HgN/A
3:00 PM95 °FPassing clouds.8 mph36%29.89 "HgN/A
2:30 PM95 °FPassing clouds.10 mph36%29.92 "HgN/A
2:00 PM97 °FPassing clouds.5 mph34%29.92 "HgN/A
1:30 PM95 °FPassing clouds.7 mph39%29.95 "HgN/A
1:00 PM95 °FPassing clouds.7 mph36%29.95 "HgN/A
12:00 PM93 °FPassing clouds.5 mph39%29.98 "Hg10 mi
11:30 AM91 °FSunny.2 mph44%29.98 "Hg10 mi
11:00 AM91 °FSunny.3 mph44%30.01 "Hg10 mi
10:30 AM90 °FSunny.3 mph46%30.01 "Hg10 mi
10:00 AM88 °FPassing clouds.5 mph52%30.04 "HgN/A
9:00 AM84 °FSunny.3 mph58%30.01 "Hg10 mi
8:30 AM81 °FSunny.2 mph74%30.01 "Hg10 mi
8:00 AM77 °FSunny.1 mph89%29.98 "Hg10 mi
7:30 AM75 °FSunny.2 mph89%29.98 "Hg10 mi
7:00 AM72 °FSunny.1 mph100%29.98 "Hg10 mi
6:30 AM72 °FSunny.1 mph100%29.95 "Hg10 mi
6:00 AM72 °FClear.1 mph100%29.95 "Hg10 mi
5:30 AM73 °FClear.1 mph94%29.95 "Hg10 mi
5:00 AM73 °FClear.1 mph94%29.95 "Hg10 mi
4:30 AM75 °FClear.1 mph89%29.92 "Hg10 mi
4:00 AM75 °FClear.1 mph89%29.92 "Hg10 mi
3:30 AM75 °FClear.3 mph89%29.92 "Hg10 mi
3:00 AM73 °FClear.2 mph94%29.92 "Hg10 mi
2:30 AM75 °FClear.1 mph89%29.92 "Hg10 mi
2:00 AM75 °FClear.2 mph89%29.95 "Hg10 mi
1:30 AM75 °FClear.2 mph83%29.95 "Hg10 mi
1:00 AM75 °FClear.3 mph89%29.95 "Hg10 mi
12:30 AM77 °FClear.3 mph83%29.98 "Hg10 mi
12:00 AM77 °FClear.7 mph83%29.95 "Hg10 mi
11:30 PM
Fri, Oct 21
79 °FPassing clouds.8 mph84%29.98 "HgN/A
11:00 PM79 °FPassing clouds.2 mph84%29.98 "HgN/A
10:30 PM77 °FThunderstorms. Passing clouds.No wind89%29.98 "HgN/A
10:00 PM79 °FThunderstorms. Passing clouds.No wind84%29.98 "HgN/A
9:30 PM84 °FThunderstorms. Passing clouds.3 mph66%29.98 "HgN/A
9:00 PM82 °FThunderstorms. Passing clouds.1 mph70%29.95 "HgN/A
8:30 PM81 °FThunderstorms. Passing clouds.2 mph79%29.95 "HgN/A
8:00 PM81 °FThunderstorms. Passing clouds.1 mph74%29.92 "HgN/A
7:30 PM81 °FThunderstorms. Passing clouds.5 mph74%29.92 "HgN/A
7:00 PM86 °FThunderstorms. Passing clouds.2 mph59%29.92 "HgN/A
Weather by CustomWeather, © 2016

See weather overviewHow to use our weather pages